CW2671 Weather Reports


Display with metric or nautical units.
time (UTC)temp
F
wind
direction
speed
MPH
gust
MPH
rain 1hr
in
rain 24hr
in
rain mn
in
humidity
%
barometer
mb
20260506181522 66 80 0.0 8.0 0.00 0.01 0.01 78 1007.9
20260506180021 66 248 0.0 10.0 0.00 0.01 0.01 76 1007.9
20260506174520 66 67 2.0 10.0 0.00 0.01 0.01 76 1008.0
20260506173019 66 115 2.0 9.0 0.00 0.01 0.01 77 1008.1
20260506171520 66 46 0.0 3.0 0.01 0.01 0.01 78 1008.3
20260506170017 67 239 0.0 4.0 0.01 0.01 0.01 78 1008.4
20260506164515 67 148 0.0 6.0 0.01 0.01 0.01 80 1008.3
20260506163013 67 266 0.0 6.0 0.01 0.01 0.01 76 1008.7
20260506161511 67 242 1.0 5.0 0.00 0.00 0.00 76 1009.2
20260506160011 67 225 0.0 5.0 0.00 0.00 0.00 73 1009.5
20260506154508 67 311 1.0 6.0 0.00 0.00 0.00 71 1009.6
20260506153010 68 252 0.0 7.0 0.00 0.00 0.00 69 1009.4
20260506151506 69 88 0.0 9.0 0.00 0.00 0.00 66 1009.5
20260506150007 69 261 0.0 9.0 0.00 0.00 0.00 64 1009.6
20260506144518 69 271 1.0 9.0 0.00 0.00 0.00 65 1009.6
20260506143004 69 74 0.0 5.0 0.00 0.00 0.00 64 1009.7
20260506141503 69 130 1.0 6.0 0.00 0.00 0.00 64 1009.5
20260506140003 69 260 0.0 5.0 0.00 0.00 0.00 66 1009.6
20260506134559 68 98 1.0 7.0 0.00 0.00 0.00 67 1009.4
20260506133134 68 286 2.0 8.0 0.00 0.00 0.00 67 1009.4
20260506131558 68 89 1.0 5.0 0.00 0.00 0.00 67 1009.6
20260506130138 68 149 2.0 10.0 0.00 0.00 0.00 67 1009.7
20260506124556 68 86 1.0 7.0 0.00 0.00 0.00 68 1009.6
20260506123054 67 271 3.0 8.0 0.00 0.00 0.00 69 1009.6
20260506121556 66 243 0.0 6.0 0.00 0.00 0.00 71 1009.6
20260506120057 65 129 1.0 8.0 0.00 0.00 0.00 73 1009.7
20260506114552 65 347 0.0 5.0 0.00 0.00 0.00 73 1009.7
20260506113053 64 80 1.0 7.0 0.00 0.00 0.00 73 1009.8
20260506111551 64 84 0.0 8.0 0.00 0.00 0.00 74 1009.7
20260506110050 64 286 1.0 7.0 0.00 0.00 0.00 75 1009.8
20260506104558 63 109 0.0 4.0 0.00 0.00 0.00 77 1009.7
20260506103048 63 95 0.0 5.0 0.00 0.00 0.00 77 1009.7
20260506101548 63 104 0.0 6.0 0.00 0.00 0.00 78 1009.8
20260506094548 63 276 0.0 3.0 0.00 0.00 0.00 78 1009.6
20260506093046 63 82 0.0 8.0 0.00 0.00 0.00 77 1009.5
20260506091542 64 307 0.0 4.0 0.00 0.00 0.00 77 1009.5
20260506090042 64 117 0.0 3.0 0.00 0.00 0.00 77 1009.7
20260506084541 64 113 0.0 9.0 0.00 0.00 0.00 76 1009.8
20260506083039 64 103 0.0 5.0 0.00 0.00 0.00 76 1009.8
20260506081541 64 254 0.0 4.0 0.00 0.00 0.00 76 1009.9
20260506073034 65 226 1.0 6.0 0.00 0.00 0.00 76 1009.8
20260506071531 65 39 0.0 5.0 0.00 0.00 0.00 76 1009.9
20260506061526 66 261 0.0 5.0 0.00 0.00 0.00 74 1010.2
20260506044517 67 253 0.0 7.0 0.00 0.00 0.00 70 1010.6
20260506043015 67 315 0.0 4.0 0.00 0.00 0.00 69 1010.5
20260506041513 68 259 0.0 8.0 0.00 0.00 0.00 68 1010.6
20260506040011 68 242 0.0 6.0 0.00 0.00 0.00 67 1010.4
20260506034510 68 227 0.0 4.0 0.00 0.00 0.00 66 1010.5
20260506033013 68 244 0.0 4.0 0.00 0.00 0.00 65 1010.4
20260506031513 68 82 0.0 8.0 0.00 0.00 0.00 64 1010.5
20260506030009 69 245 1.0 6.0 0.00 0.00 0.00 63 1010.5
20260506024507 69 56 0.0 6.0 0.00 0.00 0.00 62 1010.5
20260506023006 70 197 1.0 4.0 0.00 0.00 0.00 60 1010.5
20260506021505 70 89 1.0 7.0 0.00 0.00 0.00 59 1010.6
20260506020004 70 319 0.0 9.0 0.00 0.00 0.00 58 1010.4
20260506014504 71 259 2.0 8.0 0.00 0.00 0.00 57 1010.2
20260506013002 71 174 1.0 9.0 0.00 0.00 0.00 57 1010.2
20260506011504 71 103 1.0 11.0 0.00 0.00 0.00 57 1010.2
20260506010001 71 73 0.0 11.0 0.00 0.00 0.00 56 1010.0
20260506004602 72 53 3.0 7.0 0.00 0.00 0.00 56 1010.0
20260506003126 73 59 1.0 5.0 0.00 0.00 0.00 52 1009.7
20260506001606 74 169 1.0 8.0 0.00 0.00 0.00 48 1009.5
20260506000059 75 115 0.0 6.0 0.00 0.00 0.00 45 1009.3
20260505234558 76 297 0.0 4.0 0.00 0.00 0.00 42 1009.3
20260505233111 77 215 0.0 7.0 0.00 0.00 0.00 40 1009.0
20260505231555 78 228 1.0 8.0 0.00 0.00 0.00 40 1008.9
20260505230058 78 100 1.0 8.0 0.00 0.00 0.00 39 1008.9
20260505224555 79 227 1.0 6.0 0.00 0.00 0.00 39 1008.8
20260505223053 80 232 2.0 12.0 0.00 0.00 0.00 37 1008.8
20260505221555 81 68 1.0 9.0 0.00 0.00 0.00 37 1008.6
20260505220052 82 260 3.0 9.0 0.00 0.00 0.00 34 1008.7
20260505214609 83 176 2.0 13.0 0.00 0.00 0.00 33 1008.4
20260505213050 83 63 2.0 9.0 0.00 0.00 0.00 32 1008.4
20260505211549 84 82 2.0 11.0 0.00 0.00 0.00 29 1008.4
20260505210048 84 214 2.0 14.0 0.00 0.00 0.00 28 1008.4
20260505204547 84 231 2.0 13.0 0.00 0.00 0.00 28 1008.3
20260505203048 84 45 3.0 13.0 0.00 0.00 0.00 30 1008.3
20260505201551 85 140 2.0 10.0 0.00 0.00 0.00 30 1008.1
20260505200044 85 217 2.0 10.0 0.00 0.00 0.00 31 1008.3
20260505194542 85 262 3.0 12.0 0.00 0.00 0.00 33 1008.3
20260505193041 85 216 2.0 9.0 0.00 0.00 0.00 34 1008.6
20260505191539 85 330 2.0 17.0 0.00 0.00 0.00 34 1008.7
20260505190039 84 230 2.0 11.0 0.00 0.00 0.00 37 1008.8
20260505184537 84 304 2.0 9.0 0.00 0.00 0.00 35 1009.2
20260505183047 84 346 2.0 10.0 0.00 0.00 0.00 35 1009.2